GJOHN EGKA-EGHP

Flight info

Callsign GJOHN
Flight time N/A
Altitude 1500
Route SHOREHAM WORTHING LITTLEHAMPTON BOGNOR REGIS FISHBOURNE WEST MARDEN PETERSFIELD WEST MEON CROSS ROADS NEW ALRESFORD ABBOTS WORTHY WEST STRATTON POPHAM
Aircraft C182/L-VGDW/C

Departure

Time N/A
Airport Brighton City Airport (EGKA)

Arrival

Time 2026-05-05 14:25
Airport Popham Airfield (EGHP)
Time Latitude Longitude Altitude Speed Heading
2026-05-05 14:25 51.19357 -1.23821 554 ft 0 kts 261°
2026-05-05 14:26 51.19356 -1.23825 554 ft 0 kts 256°
2026-05-05 14:26 51.19344 -1.23851 554 ft 6 kts 224°
2026-05-05 14:26 51.19312 -1.23972 554 ft 15 kts 260°
2026-05-05 14:26 51.19295 -1.24125 554 ft 13 kts 259°
2026-05-05 14:27 51.19276 -1.24265 554 ft 12 kts 256°
2026-05-05 14:27 51.19249 -1.24369 554 ft 10 kts 208°
2026-05-05 14:27 51.19213 -1.24324 554 ft 8 kts 72°
2026-05-05 14:27 51.19250 -1.24108 554 ft 46 kts 72°
2026-05-05 14:28 51.19361 -1.23380 653 ft 80 kts 71°
2026-05-05 14:28 51.19584 -1.22603 886 ft 76 kts 33°
2026-05-05 14:28 51.20100 -1.22793 974 ft 95 kts 314°
2026-05-05 14:28 51.20202 -1.23814 1053 ft 99 kts 259°
2026-05-05 14:29 51.19975 -1.24830 1068 ft 97 kts 253°
2026-05-05 14:29 51.20039 -1.25766 1140 ft 79 kts 310°
2026-05-05 14:29 51.20498 -1.25957 1264 ft 70 kts 13°
2026-05-05 14:29 51.20983 -1.25762 1414 ft 76 kts
2026-05-05 14:30 51.21521 -1.25607 1491 ft 80 kts
2026-05-05 14:30 51.22085 -1.25508 1498 ft 83 kts
2026-05-05 14:30 51.22662 -1.25630 1502 ft 85 kts 346°
2026-05-05 14:30 51.23231 -1.25918 1505 ft 87 kts 341°
2026-05-05 14:31 51.23800 -1.26254 1507 ft 88 kts 340°